Regional Weather Roundup
Issued by NWS

Home | Current Version | Previous Version | Text Only | Print | Product List | Glossary On
Versions: 1 2 3 4 5 6 7 8 9 10 11 12 13 14 15 16 17 18 19 20 21 22 23 24 25 26 27 28 29 30 31 32 33 34 35 36 37 38 39 40 41 42 43 44 45 46 47 48 49 50
000
ASUS43 KLSX 041407
RWRMO

WEATHER SUMMARY FOR MISSOURI
NATIONAL WEATHER SERVICE SPRINGFIELD MO
900 AM CDT FRI SEP 04 2015

NOTE: "FAIR" INDICATES FEW OR NO CLOUDS BELOW 12,000 FEET WITH NO
       SIGNIFICANT WEATHER AND/OR OBSTRUCTIONS TO VISIBILITY.
       CURRENT SKY AND/OR WEATHER CONDITIONS ARE NOT AVAILABLE FOR
       CHILLICOTHE AND FARMINGTON.

MOZ001>031-035>038-043-044-053-054-041500-
...NORTHERN AND WESTERN MISSOURI...

CITY           SKY/WX    TMP DP  RH WIND       PRES   REMARKS
KANSAS CTY INT MOSUNNY   79  68  69 S12       29.99R
KANSAS C DTWN  MOSUNNY   81  68  64 S9        29.98R
LEE`S SUMMIT   MOSUNNY   77  67  71 S6        30.01R
ST JOSEPH      SUNNY     77  70  79 S6        29.98R
CHILLICOTHE      N/A     78  71  79 S6        30.00S
KIRKSVILLE     SUNNY     78  70  76 SW8       30.03R

$$
MOZ066>068-077>081-088>096-101>105-041500-
...SOUTHWEST MISSOURI...

CITY           SKY/WX    TMP DP  RH WIND       PRES   REMARKS
SPRINGFIELD    PTSUNNY   77  69  76 S8        30.04R
JOPLIN         MOSUNNY   78  68  71 S10       30.02R

$$
MOZ032>034-039>042-045>050-055>058-069>072-041500-
...CENTRAL MISSOURI...

CITY           SKY/WX    TMP DP  RH WIND       PRES   REMARKS
COLUMBIA       MOSUNNY   75  70  84 S6        30.03R
JEFFERSON CITY MOSUNNY   76  70  82 SE3       30.02R
ROLLA          MOSUNNY   76  68  76 S7        30.04R
SEDALIA        MOSUNNY   79  70  74 S7        30.02R
WHITEMAN AFB   SUNNY     79  69  72 SW10      30.00R
WARRENSBURG    MOSUNNY   77  68  73 S7        30.00R
OSAGE BEACH    MOSUNNY   75  66  73 S3        30.04R

$$
MOZ051-052-059>065-041500-
...EAST CENTRAL MISSOURI...

CITY           SKY/WX    TMP DP  RH WIND       PRES   REMARKS
ST LOUIS INTL  PTSUNNY   84  69  60 W5        30.03R
SPIRIT OF STL  PTSUNNY   79  74  84 CALM      30.02R
ST CHARLES     SUNNY     78  73  84 CALM      30.02R

$$
MOZ072>076-082>087-097>100-106>115-041500-
...SOUTH CENTRAL AND SOUTHEAST MISSOURI...

CITY           SKY/WX    TMP DP  RH WIND       PRES   REMARKS
CAPE GIRARDEAU SUNNY     78  72  81 CALM      30.04R
FARMINGTON     MOSUNNY   75  72  88 CALM      30.08R
POPLAR BLUFF   SUNNY     79  72  79 CALM      30.03R
WEST PLAINS    MOSUNNY   78  69  73 S3        30.08R

$$



USA.gov is the U.S. government's official web portal to all federal, state and local government web resources and services.